Location: Moscow
(55.7500°N, 37.5830°E)
Time: 20:27:38
(UTC+03:00)

Tiros 1 despin weight - Pass Details

Date: 04 December 2021
Orbit: 592 x 641 km, 48.2° (Epoch: 21 January)

Event Time Altitude Azimuth Distance (km) Brightness Sun altitude
Rises 16:46:38 0° 258° (WSW) 2,826 ? -6.2°
Reaches altitude 10° 16:49:07 10° 247° (WSW) 1,923 ? -6.5°
Maximum altitude 16:52:57 30° 187° (S) 1,078 ? -6.9°
Drops below altitude 10° 16:56:47 10° 126° (SE) 1,924 ? -7.4°
Sets 16:59:16 0° 116° (ESE) 2,830 ? -7.7°
